Regional Weather Roundup
Issued by NWS

Home | Current Version | Previous Version | Graphics & Text | Print | Product List | Glossary On
Versions: 1 2 3 4 5 6 7 8 9 10 11 12 13 14 15 16 17 18 19 20 21 22 23 24 25 26 27 28 29 30 31 32 33 34 35 36 37 38 39 40 41 42 43 44 45 46 47 48 49 50
003
ASUS45 KCYS 301410
RWRWY

WYOMING REGIONAL WEATHER ROUNDUP
NATIONAL WEATHER SERVICE CHEYENNE WY
800 AM MDT SAT JUL 30 2016

NOTE:  "FAIR" INDICATES FEW OR NO CLOUDS BELOW 12,000 FEET
WITH NO SIGNIFICANT WEATHER AND/OR OBSTRUCTIONS TO VISIBILITY.

WYZ001-301500-
YELLOWSTONE NATIONAL PARK

CITY           SKY/WX    TMP DP  RH WIND       PRES   REMARKS
LK YELLOWSTONE   N/A     50  45  83 CALM      30.21S
W YELLOWSTONE  NOT AVBL

$$
WYZ002>013-054>058-071-098>099-301500-
NORTHERN WYOMING

CITY           SKY/WX    TMP DP  RH WIND       PRES   REMARKS
JACKSON        SUNNY     52  39  62 CALM      30.14R
CODY           FAIR      63  48  59 CALM      30.00S
GREYBULL       FAIR      70  46  42 CALM      29.93S
WORLAND        FAIR      67  47  48 S5        29.94F
SHERIDAN       FAIR      69  49  48 CALM      29.92F
BUFFALO        FAIR      73  50  44 SW3       30.00F
GILLETTE       FAIR      70  55  59 SW7       29.97F
HULETT         FAIR      70  57  64 CALM      29.99F
NEWCASTLE      FAIR      66  54  63 CALM      30.00S

$$
WYZ014>020-022>026-101>103-301500-
CENTRAL WYOMING

CITY           SKY/WX    TMP DP  RH WIND       PRES   REMARKS
BIG PINEY      FAIR      54  35  48 CALM      30.21R
PINEDALE       FAIR      54  37  54 CALM      30.22S
DUBOIS         FAIR      54  41  62 NW9       30.18F HAZE
LANDER         FAIR      67  44  43 NW5       30.09R
RIVERTON       FAIR      66  48  52 NW9       30.07S
CASPER         FAIR      60  53  77 CALM      30.06S
DOUGLAS        FAIR      62  58  86 CALM      30.05S

$$
WYZ021-027>030-104>119-301500-
SOUTHERN WYOMING

CITY           SKY/WX    TMP DP  RH WIND       PRES   REMARKS
EVANSTON       FAIR      64  34  32 S5        30.20R
KEMMERER         N/A     57  32  38 N8        30.21S
FORT BRIDGER   FAIR      65  33  29 W3        30.22R
ROCK SPRINGS   FAIR      62  43  49 CALM      30.18R
DIXON          FAIR      56  35  44 SE5       30.21S
RAWLINS        FAIR      60  52  74 CALM      30.18S
SARATOGA       FAIR      59  39  47 S7        30.21R
LARAMIE        FAIR      55  52  89 S3        30.20R
CHEYENNE       CLOUDY    61  60  97 SW6       30.12F FOG
TORRINGTON     FAIR      65  60  84 S3        30.01S
PINE BLUFFS    FAIR      64  61  88 SE9       30.09S

$$




USA.gov is the U.S. government's official web portal to all federal, state and local government web resources and services.